Bluffton, MN

3:45 AM CDT on October 01, 2016 (GMT -0500)
Wadena Municipal

Weather History for KADC - October, 2012

Change the Weather History Date:

Wednesday, October 3, 2012

  Actual Average Record
Temperature  
Mean Temperature 53 °F -  
Max Temperature 73 °F 61 °F 82 °F (1938)
Min Temperature 33 °F 36 °F 19 °F (1936)
Degree Days  
Heating Degree Days 12    
Growing Degree Days 3 (Base 50)    
Moisture  
Dew Point 34 °F    
Average Humidity 52    
Maximum Humidity 75    
Minimum Humidity 23    
Precipitation  
Precipitation 0.00 in - - ()
Sea Level Pressure  
Sea Level Pressure 29.84 in    
Wind  
Wind Speed 4 mph (ENE)    
Max Wind Speed 18 mph    
Max Gust Speed 24 mph    
Visibility 9 miles    
Events      
Averages and records for this station are not official NWS values.
T = Trace of Precipitation, MM = Missing Value Source: NWS Daily Summary

Daily Weather History Graph

Daily Weather History Graph

Search for Another Location

Airport or City:

Trip Planner

Search our weather history database for the weather conditions in past years. The results will help you decide how hot, cold, wet, or windy it might be!

Date:

Astronomy

Oct. 03, 2012 Rise Set
Actual Time 7:22 AM CDT 6:55 PM CDT
Civil Twilight 6:52 AM CDT 7:25 PM CDT
Nautical Twilight 6:17 AM CDT 8:00 PM CDT
Astronomical Twilight 5:42 AM CDT 8:35 PM CDT
Moon 8:33 PM CDT (10/3) 11:01 AM CDT (10/3)
Length of Visible Light 12h 33m
Length of Day
11h 33m
Waning Gibbous, 88% of the Moon is Illuminated
Oct 3
Waning Gibbous
Oct 8
Last Quarter
Oct 15
New
Oct 21
First Quarter
Oct 29
Full

Hourly Weather History & Observations

Time (CDT) Temp. Windchill Dew Point Humidity Pressure Visibility Wind Dir Wind Speed Gust Speed Precip Events Conditions
12:15 AM 48.2 °F - 26.6 °F 43% 29.82 in 10.0 mi South 4.6 mph - N/A   Clear
12:35 AM 48.2 °F - 26.6 °F 43% 29.82 in 10.0 mi South 4.6 mph - N/A   Clear
12:53 AM 48.2 °F - 28.4 °F 46% 29.82 in 10.0 mi Calm Calm - N/A   Clear
1:15 AM 46.4 °F - 26.6 °F 46% 29.82 in 10.0 mi Calm Calm - N/A   Clear
1:34 AM 44.6 °F - 28.4 °F 53% 29.82 in 10.0 mi Calm Calm - N/A   Clear
1:53 AM 42.8 °F - 28.4 °F 57% 29.83 in 10.0 mi Calm Calm - N/A   Clear
2:15 AM 42.8 °F - 26.6 °F 53% 29.83 in 10.0 mi Calm Calm - N/A   Clear
2:35 AM 39.2 °F - 28.4 °F 65% 29.83 in 10.0 mi Calm Calm - N/A   Clear
2:53 AM 37.4 °F - 28.4 °F 70% 29.83 in 10.0 mi Calm Calm - N/A   Clear
3:15 AM 39.2 °F - 28.4 °F 65% 29.83 in 10.0 mi Calm Calm - N/A   Clear
3:35 AM 37.4 °F - 28.4 °F 70% 29.82 in 10.0 mi Calm Calm - N/A   Clear
3:53 AM 37.4 °F - 26.6 °F 65% 29.82 in 10.0 mi Calm Calm - N/A   Clear
4:15 AM 37.4 °F - 26.6 °F 65% 29.82 in 10.0 mi Calm Calm - N/A   Clear
4:35 AM 35.6 °F - 26.6 °F 70% 29.83 in 10.0 mi Calm Calm - N/A   Clear
4:53 AM 35.6 °F 32.8 °F 28.4 °F 75% 29.84 in 10.0 mi North 3.5 mph - N/A   Clear
5:15 AM 35.6 °F - 26.6 °F 70% 29.84 in 10.0 mi Calm Calm - N/A   Clear
5:34 AM 35.6 °F - 26.6 °F 70% 29.85 in 10.0 mi Calm Calm - N/A   Clear
5:53 AM 35.6 °F - 26.6 °F 70% 29.86 in 10.0 mi Calm Calm - N/A   Clear
6:15 AM 33.8 °F - 26.6 °F 75% 29.87 in 10.0 mi Calm Calm - N/A   Clear
6:35 AM 33.8 °F - 26.6 °F 75% 29.87 in 10.0 mi Calm Calm - N/A   Clear
6:53 AM 35.6 °F - 26.6 °F 70% 29.87 in 10.0 mi Calm Calm - N/A   Clear
7:14 AM 33.8 °F 30.8 °F 26.6 °F 75% 29.87 in 10.0 mi NW 3.5 mph - N/A   Clear
7:35 AM 33.8 °F 29.6 °F 26.6 °F 75% 29.87 in 10.0 mi NW 4.6 mph - N/A   Clear
7:53 AM 35.6 °F - 28.4 °F 75% 29.88 in 10.0 mi Calm Calm - N/A   Clear
8:14 AM 37.4 °F - 30.2 °F 75% 29.87 in 10.0 mi Calm Calm - N/A   Clear
8:35 AM 42.8 °F - 30.2 °F 61% 29.87 in 10.0 mi Calm Calm - N/A   Clear
8:53 AM 44.6 °F - 32.0 °F 61% 29.87 in 10.0 mi Calm Calm - N/A   Clear
9:14 AM 48.2 °F - 32.0 °F 54% 29.87 in 10.0 mi Calm Calm - N/A   Clear
9:35 AM 50.0 °F - 33.8 °F 54% 29.88 in 10.0 mi Calm Calm - N/A   Clear
9:53 AM 53.6 °F - 35.6 °F 51% 29.89 in 10.0 mi NE 3.5 mph - N/A   Clear
10:15 AM 57.2 °F - 37.4 °F 48% 29.89 in 10.0 mi NE 8.1 mph - N/A   Clear
10:35 AM 57.2 °F - 37.4 °F 48% 29.88 in 10.0 mi East 8.1 mph - N/A   Clear
10:53 AM 59.0 °F - 37.4 °F 45% 29.88 in 10.0 mi East 6.9 mph - N/A   Clear
11:15 AM 60.8 °F - 37.4 °F 42% 29.87 in 10.0 mi East 9.2 mph - N/A   Clear
11:35 AM 60.8 °F - 37.4 °F 42% 29.87 in 10.0 mi ENE 10.4 mph - N/A   Clear
11:53 AM 62.6 °F - 39.2 °F 42% 29.86 in 10.0 mi ENE 9.2 mph - N/A   Clear
12:15 PM 64.4 °F - 39.2 °F 40% 29.85 in 10.0 mi ENE 9.2 mph - N/A   Clear
12:35 PM 66.2 °F - 39.2 °F 37% 29.85 in 10.0 mi ENE 10.4 mph 16.1 mph N/A   Clear
12:52 PM 66.2 °F - 39.2 °F 37% 29.84 in 10.0 mi ENE 8.1 mph - N/A   Clear
1:15 PM 68.0 °F - 39.2 °F 35% 29.83 in 10.0 mi ENE 11.5 mph 17.3 mph N/A   Clear
1:35 PM 68.0 °F - 39.2 °F 35% 29.83 in 10.0 mi ENE 10.4 mph - N/A   Clear
1:53 PM 71.6 °F - 41.0 °F 33% 29.83 in 10.0 mi East 9.2 mph - N/A   Clear
2:15 PM 69.8 °F - 39.2 °F 33% 29.83 in 10.0 mi East 9.2 mph - N/A   Clear
2:34 PM 69.8 °F - 39.2 °F 33% 29.83 in 10.0 mi East 9.2 mph - N/A   Clear
2:53 PM 69.8 °F - 39.2 °F 33% 29.82 in 10.0 mi ENE 11.5 mph - N/A   Clear
3:15 PM 69.8 °F - 35.6 °F 28% 29.81 in 10.0 mi East 10.4 mph - N/A   Clear
3:34 PM 71.6 °F - 35.6 °F 27% 29.82 in 10.0 mi East 8.1 mph - N/A   Clear
3:53 PM 73.4 °F - 35.6 °F 25% 29.81 in 10.0 mi NE 6.9 mph - N/A   Clear
4:15 PM 73.4 °F - 35.6 °F 25% 29.81 in 10.0 mi ESE 8.1 mph - N/A   Clear
4:34 PM 73.4 °F - 35.6 °F 25% 29.81 in 7.0 mi East 8.1 mph - N/A   Clear
4:53 PM 73.4 °F - 33.8 °F 23% 29.81 in 5.0 mi SE 8.1 mph - N/A   Haze
5:15 PM 71.6 °F - 33.8 °F 25% 29.81 in 7.0 mi SE 9.2 mph - N/A   Clear
5:53 PM 69.8 °F - 33.8 °F 27% 29.82 in 4.0 mi ESE 5.8 mph - N/A   Haze
6:15 PM 69.8 °F - 35.6 °F 28% 29.81 in 5.0 mi East 8.1 mph - N/A   Haze
6:34 PM 66.2 °F - 35.6 °F 32% 29.83 in 10.0 mi NNE 3.5 mph - N/A   Clear
6:53 PM 60.8 °F - 41.0 °F 48% 29.84 in 5.0 mi NNE 11.5 mph - N/A   Haze
7:15 PM 57.2 °F - 41.0 °F 55% 29.85 in 7.0 mi NNE 8.1 mph - N/A   Clear
7:35 PM 57.2 °F - 41.0 °F 55% 29.85 in 10.0 mi NE 11.5 mph - N/A   Clear
7:53 PM 55.4 °F - 41.0 °F 58% 29.85 in 10.0 mi NE 9.2 mph - N/A   Clear
8:15 PM 55.4 °F - 41.0 °F 58% 29.86 in 5.0 mi NE 11.5 mph - N/A   Haze
8:35 PM 53.6 °F - 41.0 °F 62% 29.86 in 5.0 mi NNE 11.5 mph - N/A   Haze
8:53 PM 53.6 °F - 41.0 °F 62% 29.85 in 10.0 mi NNE 11.5 mph - N/A   Clear
9:15 PM 53.6 °F - 41.0 °F 62% 29.85 in 10.0 mi NNE 12.7 mph 23.0 mph N/A   Clear
9:35 PM 53.6 °F - 41.0 °F 62% 29.85 in 10.0 mi NNE 11.5 mph 20.7 mph N/A   Clear
9:53 PM 53.6 °F - 41.0 °F 62% 29.84 in 10.0 mi NE 12.7 mph 21.9 mph N/A   Clear
10:15 PM 53.6 °F - 41.0 °F 62% 29.83 in 10.0 mi NNE 12.7 mph 19.6 mph N/A   Scattered Clouds
10:35 PM 53.6 °F - 41.0 °F 62% 29.82 in 10.0 mi NE 15.0 mph 20.7 mph N/A   Mostly Cloudy
10:53 PM 53.6 °F - 41.0 °F 62% 29.82 in 10.0 mi ENE 5.8 mph - N/A   Mostly Cloudy
11:15 PM 51.8 °F - 41.0 °F 67% 29.81 in 10.0 mi NNE 18.4 mph 21.9 mph N/A   Scattered Clouds
11:35 PM 51.8 °F - 41.0 °F 67% 29.82 in 10.0 mi NNE 9.2 mph - N/A   Mostly Cloudy
11:53 PM 51.8 °F - 41.0 °F 67% 29.80 in 10.0 mi NE 17.3 mph 24.2 mph N/A   Overcast